Weather History for KIWI - August, 2013

Change the Weather History Date:

Friday, August 30, 2013

  Actual Average Record
Temperature  
Mean Temperature 66 °F -  
Max Temperature 78 °F 72 °F 89 °F (2010)
Min Temperature 53 °F 50 °F 43 °F (2001)
Growing Degree Days 16 (Base 50)    
Moisture  
Dew Point 59 °F    
Average Humidity 78    
Maximum Humidity 97    
Minimum Humidity 62    
Precipitation  
Precipitation 0.01 in - - ()
Sea Level Pressure  
Sea Level Pressure 29.90 in    
Wind  
Wind Speed 2 mph (SW)    
Max Wind Speed 10 mph    
Max Gust Speed -    
Visibility 10 miles    
Events      
Averages and records for this station are not official NWS values.
T = Trace of Precipitation, MM = Missing Value Source: NWS Daily Summary

Daily Weather History Graph

Daily Weather History Graph

Search for Another Location

Airport or City:

Trip Planner

Search our weather history database for the weather conditions in past years. The results will help you decide how hot, cold, wet, or windy it might be!

Date:

Astronomy

Aug. 30, 2013 Rise Set
Actual Time 6:00 AM EDT 7:17 PM EDT
Civil Twilight 5:30 AM EDT 7:47 PM EDT
Nautical Twilight 4:54 AM EDT 8:23 PM EDT
Astronomical Twilight 4:16 AM EDT 9:01 PM EDT
Moon 12:29 AM EDT (8/30) 3:37 PM EDT (8/30)
Length of Visible Light 14h 17m
Length of Day
13h 17m
Waning Crescent, 29% of the Moon is Illuminated
Aug 30
Waning Crescent
Sep 5
New
Sep 12
First Quarter
Sep 19
Full
Sep 26
Last Quarter

Hourly Weather History & Observations

Time (EDT) Temp. Dew Point Humidity Pressure Visibility Wind Dir Wind Speed Gust Speed Precip Events Conditions
12:53 AM 53.1 °F 51.1 °F 93% 30.03 in 10.0 mi Calm Calm - N/A   Clear
1:53 AM 53.1 °F 51.1 °F 93% 30.02 in 10.0 mi Calm Calm - N/A   Mostly Cloudy
2:53 AM 54.0 °F 53.1 °F 97% 30.00 in 10.0 mi Calm Calm - 0.01 in   Overcast
3:53 AM 55.9 °F 55.0 °F 97% 29.99 in 10.0 mi Calm Calm - N/A   Overcast
4:53 AM 57.0 °F 55.9 °F 96% 29.97 in 10.0 mi Calm Calm - N/A   Overcast
5:53 AM 57.0 °F 55.9 °F 96% 29.97 in 10.0 mi Calm Calm - N/A   Overcast
6:53 AM 59.0 °F 57.0 °F 93% 29.97 in 10.0 mi Calm Calm - N/A   Overcast
7:53 AM 61.0 °F 57.0 °F 87% 29.97 in 10.0 mi Calm Calm - N/A   Mostly Cloudy
8:53 AM 64.0 °F 57.0 °F 78% 29.96 in 10.0 mi Variable 5.8 mph - N/A   Mostly Cloudy
9:23 AM 66.2 °F 57.2 °F 73% 29.94 in 10.0 mi WSW 5.8 mph - N/A   Partly Cloudy
9:53 AM 66.9 °F 57.9 °F 73% 29.93 in 10.0 mi SW 4.6 mph - N/A   Scattered Clouds
10:10 AM 68.0 °F 59.0 °F 73% 29.92 in 10.0 mi South 3.5 mph - N/A   Mostly Cloudy
10:21 AM 69.8 °F 57.2 °F 64% 29.92 in 10.0 mi Variable 4.6 mph - N/A   Scattered Clouds
10:29 AM 69.8 °F 59.0 °F 68% 29.91 in 10.0 mi SSW 6.9 mph - N/A   Mostly Cloudy
10:38 AM 69.8 °F 59.0 °F 68% 29.91 in 10.0 mi Variable 4.6 mph - N/A   Partly Cloudy
10:53 AM 70.0 °F 59.0 °F 68% 29.91 in 10.0 mi Variable 3.5 mph - N/A   Mostly Cloudy
11:09 AM 71.6 °F 60.8 °F 69% 29.90 in 10.0 mi West 4.6 mph - N/A   Scattered Clouds
11:19 AM 71.6 °F 60.8 °F 69% 29.90 in 10.0 mi Variable 4.6 mph - N/A   Mostly Cloudy
11:53 AM 73.9 °F 62.1 °F 66% 29.89 in 10.0 mi Variable 4.6 mph - N/A   Mostly Cloudy
12:53 PM 75.0 °F 63.0 °F 66% 29.86 in 10.0 mi Variable 3.5 mph - N/A   Mostly Cloudy
1:14 PM 75.2 °F 62.6 °F 65% 29.85 in 10.0 mi SW 6.9 mph - N/A   Mostly Cloudy
1:53 PM 73.9 °F 62.1 °F 66% 29.85 in 10.0 mi Calm Calm - N/A   Overcast
2:53 PM 78.1 °F 64.0 °F 62% 29.83 in 10.0 mi Variable 5.8 mph - N/A   Partly Cloudy
3:53 PM 77.0 °F 63.0 °F 62% 29.81 in 10.0 mi SSW 10.4 mph - N/A   Clear
4:53 PM 75.9 °F 63.0 °F 64% 29.81 in 10.0 mi South 5.8 mph - N/A   Clear
5:53 PM 75.0 °F 63.0 °F 66% 29.81 in 10.0 mi SW 5.8 mph - N/A   Clear
6:53 PM 71.1 °F 63.0 °F 75% 29.81 in 10.0 mi WSW 5.8 mph - N/A   Clear
7:53 PM 70.0 °F 63.0 °F 78% 29.81 in 10.0 mi SSW 4.6 mph - N/A   Clear
8:53 PM 66.9 °F 63.0 °F 87% 29.82 in 10.0 mi Calm Calm - N/A   Clear
9:53 PM 66.0 °F 62.1 °F 87% 29.80 in 10.0 mi Calm Calm - N/A   Clear
10:53 PM 64.9 °F 62.1 °F 90% 29.80 in 10.0 mi Calm Calm - N/A   Clear
11:53 PM 64.0 °F 62.1 °F 93% 29.78 in 8.0 mi Calm Calm - N/A   Clear